Retour au catalogue

VENERA 11 BUS

ActifScienceMEO
NORAD 11020·PAYLOAD·🇷🇺 Russia

Lancé Sep 9, 1978 depuis Baikonur Cosmodrome

Loading…

Prochains Passages (prochaines 24 heures)

TLE

PériméSource: Space-Track

Époque: Nov 15, 1979, 03:26 UTC

1 11020U 78084  A 79319.14355371  .00000266 +00000-0 +00000-0 0  9993
2 11020 001.6866 003.9470 1032733 118.8651 251.1295 01.00220322000653

Suivez VENERA 11 BUS en temps réel avec AllMySat

Download on the App Store